Location: Oberkirch
(48.5323°N, 8.0787°E)
Time: 18:55:02
(UTC+00:00)

A-11 Canister half - All Passes

Search period start: 18 February 2026 00:00
Search period end: 28 February 2026 00:00
Orbit: 1525 x 1682 km, 47.3° (Epoch: 18 February)

Date Brightness Start Highest point End Pass type
(mag) Time Alt. Az. Time Alt. Az. Time Alt. Az.
18 Feb - 13:07:48 10° SE 13:08:43 10° ESE 13:09:39 10° ESE daylight
18 Feb - 15:03:08 10° SSW 15:11:31 38° SE 15:19:49 10° ENE daylight
18 Feb - 17:06:18 10° WSW 17:15:37 74° SSE 17:24:54 10° E visible
18 Feb - 19:11:09 10° W 19:20:29 82° S 19:29:52 10° ESE visible
18 Feb - 21:16:06 10° WNW 21:25:00 53° SSW 21:34:03 10° SE visible
18 Feb - 23:22:12 10° W 23:28:22 20° SW 23:34:37 10° S visible
19 Feb - 14:41:27 10° SSW 14:49:46 37° SE 14:57:57 10° ENE daylight
19 Feb - 16:44:29 10° WSW 16:53:48 73° SSE 17:03:04 10° E daylight
19 Feb - 18:49:19 10° W 18:58:39 83° S 19:08:02 10° E visible
19 Feb - 20:54:15 10° WNW 21:03:14 55° SSW 21:12:17 10° SE visible
19 Feb - 23:00:13 10° W 23:06:37 21° SW 23:13:08 10° S visible
20 Feb - 14:19:46 10° SSW 14:27:59 35° SE 14:36:06 10° ENE daylight
20 Feb - 16:22:40 10° WSW 16:31:59 71° SSE 16:41:13 10° E daylight
20 Feb - 18:27:29 10° W 18:36:50 83° S 18:46:11 10° E visible
20 Feb - 20:32:25 10° WNW 20:41:25 57° SSW 20:50:31 10° SE visible
20 Feb - 22:38:15 10° W 22:44:53 22° SW 22:51:37 10° S visible
21 Feb - 13:58:06 10° SSW 14:06:14 34° SE 14:14:13 10° ENE daylight
21 Feb - 16:00:52 10° WSW 16:10:10 70° SSE 16:19:23 10° E daylight
21 Feb - 18:05:38 10° W 18:14:59 84° S 18:24:21 10° E visible
21 Feb - 20:10:35 10° WNW 20:19:37 58° SSW 20:28:44 10° SE visible
21 Feb - 22:16:18 10° W 22:23:09 24° SW 22:30:05 10° S visible
22 Feb - 13:36:27 10° SSW 13:44:28 32° SE 13:52:21 10° E daylight
22 Feb - 15:39:02 10° WSW 15:48:21 68° SSE 15:57:34 10° E daylight
22 Feb - 17:43:48 10° W 17:53:10 84° S 18:02:31 10° E visible
22 Feb - 19:48:46 10° WNW 19:57:49 60° SSW 20:06:57 10° SE visible
22 Feb - 21:54:22 10° W 22:01:24 25° SW 22:08:31 10° S visible
23 Feb - 13:14:48 10° SSW 13:22:42 31° SE 13:30:27 10° E daylight
23 Feb - 15:17:14 10° WSW 15:26:33 67° SSE 15:35:44 10° ENE daylight
23 Feb - 17:21:56 10° W 17:31:20 84° S 17:40:40 10° E visible
23 Feb - 19:26:55 10° WNW 19:36:01 62° SSW 19:45:10 10° SE visible
23 Feb - 21:32:26 10° W 21:39:39 26° SW 21:46:57 10° S visible
24 Feb - 12:53:10 10° S 13:00:57 29° SE 13:08:34 10° E daylight
24 Feb - 14:55:25 10° SW 15:04:44 65° SSE 15:13:53 10° ENE daylight
24 Feb - 17:00:05 10° W 17:09:30 84° S 17:18:50 10° E daylight
24 Feb - 19:05:05 10° WNW 19:14:13 63° SSW 19:23:23 10° SE visible
24 Feb - 21:10:32 10° W 21:17:54 27° SW 21:25:21 10° S visible
25 Feb - 12:31:33 10° S 12:39:11 28° SE 12:46:40 10° E daylight
25 Feb - 14:33:37 10° SW 14:42:55 64° SSE 14:52:04 10° ENE daylight
25 Feb - 16:38:14 10° W 16:47:40 84° S 16:57:00 10° E daylight
25 Feb - 18:43:14 10° WNW 18:52:24 65° SSW 19:01:35 10° SE visible
25 Feb - 20:48:37 10° W 20:56:09 29° SW 21:03:45 10° S visible
26 Feb - 12:09:57 10° S 12:17:26 27° SE 12:24:45 10° E daylight
26 Feb - 14:11:48 10° SW 14:21:07 62° SSE 14:30:14 10° ENE daylight
26 Feb - 16:16:23 10° W 16:25:50 84° S 16:35:09 10° E daylight
26 Feb - 18:21:23 10° WNW 18:30:36 67° SSW 18:39:48 10° ESE visible
26 Feb - 20:26:43 10° W 20:34:24 30° SW 20:42:09 10° SSE visible
27 Feb - 11:48:22 10° S 11:55:40 25° SE 12:02:51 10° E daylight
27 Feb - 13:50:01 10° SW 13:59:18 60° SSE 14:08:25 10° ENE daylight
27 Feb - 15:54:32 10° W 16:04:00 84° S 16:13:19 10° E daylight
27 Feb - 17:59:33 10° W 18:08:48 68° SSW 18:18:00 10° ESE visible
27 Feb - 20:04:50 10° W 20:12:39 32° SW 20:20:30 10° SSE visible
